Location: Glendo
(42.5037°N, 105.0248°W)
Time: 02:35:21
(UTC+00:00)

Tiangong - Visible Passes

Search period start: 27 January 2022 00:00
Search period end: 06 February 2022 00:00
Orbit: 382 x 387 km, 41.5° (Epoch: 26 January)

Date Brightness Start Highest point End Pass type
(mag) Time Alt. Az. Time Alt. Az. Time Alt. Az.
27 Jan 3.2 01:28:10 10° S 01:30:10 16° SSE 01:30:28 16° SE visible
28 Jan 2.7 02:03:57 10° SW 02:05:57 28° SSW 02:05:57 28° SSW visible
29 Jan 2.6 01:04:36 10° SSW 01:07:15 24° SSE 01:09:08 15° ESE visible
29 Jan 4.2 02:40:39 10° WSW 02:41:21 15° WSW 02:41:21 15° WSW visible
30 Jan 1.4 01:40:57 10° WSW 01:44:03 51° SSE 01:44:28 46° SE visible
31 Jan 2.1 00:41:20 10° SW 00:44:17 36° SSE 00:47:16 10° E visible
31 Jan 2.7 02:17:47 10° W 02:19:45 34° WSW 02:19:45 34° WSW visible
01 Feb 1.2 01:17:58 10° WSW 01:21:07 66° S 01:22:48 25° E visible
01 Feb 4.6 02:54:43 10° W 02:55:00 12° W 02:55:00 12° W visible
02 Feb 1.0 01:54:50 10° W 01:58:00 74° S 01:58:01 74° S visible
03 Feb 1.2 00:54:56 10° W 00:58:06 74° S 01:01:03 12° E visible
03 Feb 3.4 02:31:44 10° W 02:33:15 24° W 02:33:15 24° W visible
04 Feb 1.3 01:31:47 10° W 01:34:56 64° S 01:36:18 30° ESE visible
05 Feb 2.3 02:08:42 10° W 02:11:35 35° SSW 02:11:35 35° SSW visible
